Regional Weather Roundup
Issued by NWS

Home | Current Version | Previous Version | Text Only | Print | Product List | Glossary Off
Versions: 1 2 3 4 5 6 7 8 9 10 11 12 13 14 15 16 17 18 19 20 21 22 23 24 25 26 27 28 29 30 31 32 33 34 35 36 37 38 39 40 41 42 43 44 45 46 47 48 49 50

464
ASUS43 KFSD 231110
RWRSD

WEATHER ROUNDUP FOR SOUTH DAKOTA
NATIONAL WEATHER SERVICE SIOUX FALLS SD
600 AM CDT SUN JUL 23 2017

NOTE: "FAIR" INDICATES FEW OR NO CLOUDS BELOW 12,000 FEET WITH NO
SIGNIFICANT WEATHER AND/OR OBSTRUCTIONS TO VISIBILITY.


SDZ001>005-009-010-012>017-231200-
NORTHWEST AND NORTH CENTRAL SOUTH DAKOTA

CITY           SKY/WX    TMP DP  RH WIND       PRES   REMARKS
BUFFALO          N/A     61  47  59 NE5       30.04S
FAITH            N/A     61  49  64 CALM      30.09R
MOBRIDGE       CLEAR     60  57  89 N3        30.03R
$$

SDZ012>016-024>037-041>051-057-063-072>074-231200-
SOUTHWEST AND SOUTH CENTRAL SOUTH DAKOTA

CITY           SKY/WX    TMP DP  RH WIND       PRES   REMARKS
RAPID CTY ARPT CLEAR     56  45  66 NW7       30.11S
PIERRE         PTCLDY    61  52  72 N6        30.02S
CUSTER         CLEAR     54  36  50 NE6       30.23S
ELLSWORTH AFB  CLEAR     61  45  55 W5        30.10S
PHILIP         CLEAR     54  47  77 CALM      30.06R
PINE RIDGE     CLEAR     59  52  77 E5        30.10R
SPEARFISH      FAIR      57  43  58 CALM      30.13F
WINNER         FAIR      62  51  67 NW3       30.03S
$$

SDZ004>011-016>023-039-040-231200-
NORTHEAST SOUTH DAKOTA

CITY           SKY/WX    TMP DP  RH WIND       PRES   REMARKS
ABERDEEN       CLEAR     59  57  93 NW7       30.00R
WATERTOWN      CLEAR     61  58  90 CALM      29.97S
BROOKINGS      CLEAR     61  57  87 SW3       29.97F
SISSETON         N/A     61  58  90 NW9       29.95R
$$

SDZ017-020-022-023-036>040-048>070-231200-
SOUTHEAST SOUTH DAKOTA

CITY           SKY/WX    TMP DP  RH WIND       PRES   REMARKS
SIOUX FALLS    PTCLDY    63  59  87 CALM      29.95S
HURON          CLEAR     59  59 100 W5        29.99R
CHAMBERLAIN    CLEAR     67  56  67 NW3       30.02R
MITCHELL       CLEAR     62  59  90 N8        29.98R
YANKTON        CLEAR     64  61  90 N6        29.97R
$$

ABBREVIATIONS USED IN REMARKS
   TC - TEMPERATURE IN CELSIUS
  WCI - WIND CHILL INDEX
   HX - HEAT INDEX
  VSB - VISIBILITY





USA.gov is the U.S. government's official web portal to all federal, state and local government web resources and services.